GEFSSE_500_meanwind_258.txt.gz
Wind_Speed
1 2 2 1 1 0 1 1 1 1 1 1 1 1 1 1 1 1 1 1 2 2 2 2 3 3 3 3 3 3 3 3 3 3 3 3 3 3 3 4 4 4 4
0 1 1 1 1 1 1 2 2 2 2 1 1 1 1 2 2 2 2 2 2 3 3 3 3 3 3 3 3 3 4 4 4 4 4 4 4 4 4 5 5 6 6
1 1 1 2 2 2 2 2 2 2 2 2 2 2 2 3 3 3 3 3 3 3 3 4 4 4 4 4 4 4 4 4 5 5 5 5 5 5 5 5 6 6 6
2 3 3 3 4 4 3 3 3 2 3 3 3 4 4 4 4 4 4 4 4 4 4 4 5 5 5 5 5 5 5 5 5 5 5 6 6 6 6 6 6 7 7
4 4 5 4 4 4 4 4 4 4 4 4 4 4 4 4 4 4 4 4 4 4 5 5 5 5 6 6 6 6 6 6 6 6 6 6 7 7 7 7 7 7 8
5 5 5 5 5 5 5 4 4 4 5 5 5 5 5 5 5 5 5 6 5 5 6 6 6 6 6 7 7 7 7 7 7 7 7 7 7 8 8 7 8 8 8
6 6 6 6 5 6 6 5 6 6 5 5 5 5 6 6 6 6 6 6 7 7 7 6 6 7 7 7 8 8 8 7 7 8 8 8 8 8 8 7 8 8 8
7 7 6 7 6 6 7 7 7 7 7 6 7 7 7 7 8 7 7 7 7 7 8 7 7 8 8 8 8 8 8 8 8 9 9 9 9 8 8 9 9 9 8
8 7 8 7 8 8 8 8 8 8 7 7 7 8 8 8 9 9 9 9 8 8 8 8 8 9 8 8 9 9 8 8 9 9 9 9 9 9 9 9 9 9 8
8 9 9 8 9 9 8 8 8 7 8 8 9 9 9 10 10 9 9 10 10 10 10 10 10 10 10 9 9 9 9 9 9 9 10 10 10 10 10 10 9 9 9
10 10 10 9 9 9 9 9 8 8 8 9 9 10 10 9 10 10 10 11 11 11 11 11 11 11 10 10 10 10 10 9 9 9 9 10 10 10 10 9 9 9 9
11 11 11 10 11 10 10 10 10 10 10 10 10 10 11 10 10 11 11 12 12 12 12 11 11 11 11 10 10 10 9 9 9 10 10 10 10 10 10 9 10 9 9
12 12 11 11 11 11 11 11 11 11 11 11 11 11 11 11 11 11 11 11 12 12 12 11 11 10 10 10 10 10 9 9 9 10 10 10 10 10 10 10 10 10 10
12 12 11 11 11 11 11 11 10 11 11 11 11 11 11 12 12 12 12 12 12 12 11 11 11 11 10 10 10 10 10 10 10 10 10 10 10 10 10 10 10 9 10
12 12 11 11 11 11 11 11 11 12 12 12 12 12 12 12 13 13 12 13 13 12 12 11 11 11 11 11 11 11 11 11 10 10 10 10 10 10 10 10 9 9 9
13 13 12 13 12 12 12 12 12 13 13 13 13 13 13 13 13 13 13 13 13 12 12 11 10 11 11 11 11 10 10 10 10 10 10 11 11 11 10 10 10 10 9
13 13 13 13 13 14 14 14 14 14 14 14 13 13 13 13 13 13 13 13 13 12 12 12 12 12 11 11 10 10 10 10 11 11 11 11 11 12 11 11 10 10 10
13 13 14 14 14 14 14 15 15 15 14 14 14 14 14 14 14 14 14 13 13 13 12 12 11 11 11 11 10 11 11 11 11 11 11 11 11 11 11 11 10 10 10
14 14 14 15 15 15 15 15 15 15 15 15 14 14 14 14 14 14 14 13 13 13 12 12 12 12 11 11 11 12 11 11 12 11 11 11 11 11 11 11 11 11 11
15 15 15 15 15 15 15 15 15 16 16 15 14 14 14 14 13 13 14 14 13 13 12 12 12 12 11 11 12 12 13 12 12 12 12 12 12 12 12 12 12 12 12
15 15 16 16 15 15 15 15 16 16 15 15 14 14 13 13 14 13 13 14 13 13 12 12 12 12 12 12 13 13 13 13 13 13 13 13 13 12 12 12 12 12 12
16 15 15 15 16 15 15 16 15 15 15 14 14 13 13 13 13 13 14 14 14 13 12 12 12 12 12 12 12 13 13 13 13 13 13 12 12 12 12 12 12 12 12
16 16 15 15 16 16 16 16 16 15 15 14 13 13 13 12 12 13 14 14 14 13 12 12 12 12 12 12 12 12 12 12 12 12 13 13 13 12 12 12 12 12 12
16 16 16 16 16 16 16 16 16 15 15 15 14 13 13 13 13 14 14 13 13 13 13 12 12 12 12 11 12 12 12 12 13 13 13 13 13 13 13 13 13 13 13
16 16 16 16 16 16 16 16 16 15 15 14 14 13 13 13 14 14 13 13 13 13 13 13 12 12 12 12 12 12 13 13 13 13 13 13 13 13 13 13 14 13 13
16 17 17 16 16 16 16 16 16 15 14 14 14 14 14 14 14 13 13 13 13 13 12 12 13 13 13 13 13 13 14 14 13 13 13 14 14 14 14 13 14 14 14

GEFSSE_500_meanwind_264.txt.gz
Wind_Speed
2 2 2 1 2 2 2 2 2 2 2 2 2 2 2 2 2 3 3 3 3 4 4 4 4 4 4 3 3 3 4 3 3 3 3 3 3 3 3 3 4 4 4
1 1 1 1 1 2 2 3 3 3 3 3 3 3 3 3 3 3 4 4 4 4 4 4 4 4 4 4 4 4 4 4 4 4 4 4 5 5 5 4 4 5 5
1 1 1 2 2 3 3 4 4 4 4 4 4 4 4 4 4 4 4 5 5 5 5 5 5 5 5 5 5 5 5 5 5 5 5 5 5 6 6 5 5 5 5
2 2 2 2 3 4 5 5 5 4 4 5 5 5 5 5 5 5 6 6 6 6 5 5 5 6 5 5 5 6 5 5 5 6 6 7 6 7 7 7 6 7 7
2 2 2 3 4 4 5 5 5 4 4 5 5 6 6 6 6 6 6 7 7 7 7 6 6 6 6 6 6 6 6 6 6 7 7 7 7 7 7 8 7 7 7
3 3 3 3 4 4 5 5 5 5 5 5 5 5 6 6 6 7 7 7 8 8 8 7 7 7 7 7 7 7 7 7 7 8 8 8 8 8 7 8 8 8 7
4 4 4 5 5 5 5 6 6 6 6 6 6 6 7 7 7 7 7 7 8 8 8 8 8 8 8 8 8 8 8 8 8 8 8 8 8 8 8 8 8 8 8
5 6 5 5 6 6 6 6 6 7 7 7 7 7 8 8 8 8 8 8 9 9 9 9 9 8 8 8 8 8 8 8 8 9 9 9 9 8 8 8 8 8 8
6 7 6 6 7 7 7 7 8 7 7 8 7 7 8 8 8 8 9 9 9 9 9 9 9 8 8 9 9 9 9 9 9 9 9 10 10 9 9 9 9 9 9
8 7 7 7 8 8 8 8 8 8 8 8 7 8 8 9 8 8 9 9 9 9 9 9 9 9 9 9 9 10 10 10 10 9 9 10 9 9 9 9 9 9 9
8 8 9 9 9 10 10 9 9 8 7 7 8 8 8 8 8 9 9 9 9 9 10 10 10 10 10 9 9 9 10 10 9 9 9 10 10 10 10 9 9 8 8
8 9 9 9 10 10 10 9 9 9 8 7 8 8 8 8 9 9 9 9 10 10 10 10 10 10 10 9 9 9 9 10 9 9 10 10 10 10 10 10 10 9 9
9 9 9 10 10 10 10 9 9 9 9 9 9 9 9 9 9 9 10 10 10 10 10 10 10 10 10 10 10 10 10 10 10 10 10 10 10 10 10 10 10 10 10
10 10 11 10 10 10 10 10 10 9 9 10 10 10 10 10 10 10 10 10 10 10 10 10 10 10 10 10 10 10 10 10 10 10 9 9 9 9 9 9 9 9 9
10 10 10 11 11 11 11 11 10 10 11 10 10 10 10 10 10 10 10 11 11 10 9 10 10 10 10 10 10 10 10 11 11 11 9 9 9 9 9 9 8 9 9
10 10 10 11 11 11 12 11 11 11 11 11 11 10 11 11 11 11 11 11 10 10 10 10 10 10 11 11 10 11 11 11 10 9 9 9 9 9 9 9 9 9 9
11 11 11 11 11 11 11 12 12 12 12 12 11 11 11 11 11 11 11 11 10 10 11 10 10 11 11 11 11 11 11 11 10 10 9 10 10 10 10 10 10 10 10
12 12 12 12 12 12 12 12 13 13 13 13 12 12 12 12 11 11 11 11 11 11 11 11 11 11 11 11 11 11 10 10 10 10 10 11 11 11 11 11 11 10 10
12 13 13 13 12 13 13 13 14 14 14 14 14 13 13 13 12 12 12 11 11 11 12 12 12 12 11 11 11 11 10 10 11 11 12 12 11 12 12 11 12 12 12
13 13 14 14 13 13 14 14 14 14 14 14 14 14 13 13 13 13 12 12 12 12 12 12 12 12 11 11 11 11 11 11 11 12 12 12 12 12 13 12 13 13 13
14 14 14 14 14 14 14 14 14 14 14 13 13 12 12 12 12 13 13 13 13 12 13 12 12 12 11 11 11 11 11 12 12 12 12 12 12 12 13 13 13 13 13
14 14 14 14 14 14 14 14 13 13 13 12 12 11 11 11 11 12 13 13 13 12 13 12 11 11 11 11 11 11 11 11 11 12 12 12 12 12 12 12 13 12 12
13 13 13 14 13 13 13 13 13 13 13 13 12 12 11 11 11 12 12 12 12 12 12 12 11 11 11 11 11 12 11 11 11 11 12 12 12 12 13 13 13 13 13
13 13 14 13 13 13 13 13 13 14 13 13 13 13 12 12 12 13 13 12 12 12 12 11 11 11 11 11 12 12 12 12 12 12 12 13 13 14 14 14 14 14 13
13 14 14 14 14 13 13 13 14 14 14 14 14 14 13 14 13 13 13 12 12 12 12 11 11 12 12 12 11 12 13 13 13 13 13 13 13 14 14 14 14 14 13
15 15 14 14 15 14 14 14 14 14 14 14 14 14 14 13 13 13 13 13 12 12 12 12 12 12 13 13 13 13 13 13 13 14 14 14 14 14 14 14 14 15 14

GEFSSE_500_meanwind_270.txt.gz
Wind_Speed
2 2 2 2 3 2 2 2 2 3 3 3 3 3 3 4 4 4 4 5 4 5 5 5 5 5 5 5 5 5 5 5 4 4 4 4 3 3 3 4 4 4 4
1 2 2 3 3 3 2 3 3 3 3 3 3 3 4 4 4 5 5 5 5 6 6 6 6 6 6 6 5 6 5 5 5 5 5 5 5 5 5 5 5 5 5
1 2 2 3 3 3 3 3 3 4 3 4 4 4 4 4 5 5 5 5 6 6 7 6 6 6 6 6 5 6 6 6 6 6 6 6 6 6 6 6 6 6 6
2 3 2 3 3 4 3 3 3 4 4 4 4 5 5 5 5 5 6 6 6 7 7 7 7 7 7 7 6 6 7 7 7 7 6 7 7 7 7 7 7 7 7
3 3 3 3 4 4 4 4 4 4 4 4 5 6 6 6 6 6 7 7 8 8 8 8 7 8 8 7 7 7 8 7 8 8 7 8 8 8 8 8 8 8 8
4 4 4 4 5 5 5 5 5 5 5 5 6 6 6 6 6 7 7 8 9 9 9 8 8 9 9 9 9 9 9 9 9 9 9 9 9 9 9 8 8 8 9
5 5 5 5 5 6 6 6 6 6 6 6 6 6 6 6 7 7 7 8 9 9 9 9 9 9 9 10 10 10 9 9 9 9 9 9 9 9 9 9 8 9 9
6 6 6 6 6 6 7 6 6 6 6 6 7 6 6 6 7 7 7 8 8 9 9 10 9 9 10 10 10 9 10 9 9 9 9 10 10 10 10 10 10 10 10
7 7 7 7 7 7 7 7 7 6 7 7 7 7 7 7 7 7 7 8 8 8 8 9 9 9 9 9 10 10 10 10 10 10 10 10 11 11 10 10 10 10 10
8 8 8 8 8 8 8 8 7 7 7 7 7 7 7 8 7 7 8 8 8 8 8 9 9 10 10 10 10 10 10 10 10 10 10 10 10 10 10 10 10 10 10
8 9 9 9 9 9 9 9 9 8 8 8 7 7 8 8 8 8 7 8 8 8 8 9 9 9 10 10 10 10 10 10 10 10 10 10 10 11 10 10 11 11 10
9 9 9 9 9 9 9 9 9 9 9 8 8 8 8 8 8 8 8 9 9 8 9 9 9 9 9 9 9 10 10 10 10 10 10 10 10 10 10 10 10 11 11
9 9 9 10 10 10 10 10 10 10 10 10 9 9 9 9 9 8 8 9 9 9 9 9 9 9 9 10 10 10 11 11 11 11 10 10 10 10 10 10 10 10 10
9 9 10 10 10 10 10 10 10 11 11 11 10 10 9 9 9 9 9 10 10 10 10 10 10 9 10 10 10 11 11 11 10 11 10 10 10 9 9 9 10 10 9
10 10 10 10 10 10 10 11 11 11 11 11 11 10 10 10 10 11 11 11 11 11 10 10 10 10 10 10 10 11 11 11 11 11 10 10 10 9 10 10 10 9 9
11 11 11 11 11 11 11 11 11 11 12 12 11 11 11 11 11 11 11 11 11 11 11 11 11 11 11 11 11 11 11 11 12 11 11 11 10 10 10 10 10 10 10
11 11 11 12 12 13 13 12 12 12 12 12 12 12 11 11 11 11 11 11 11 11 11 11 12 12 12 12 12 11 11 11 11 11 11 11 11 11 11 10 10 11 11
11 12 12 12 13 13 13 13 13 13 13 13 13 12 12 11 11 11 11 11 11 11 11 12 12 12 12 12 12 12 12 11 11 11 11 11 11 12 12 12 12 12 12
12 12 12 13 13 13 13 13 14 14 14 14 13 13 12 12 12 12 12 12 12 11 12 12 13 13 13 12 12 13 12 12 11 11 12 11 12 12 13 13 12 13 12
13 13 13 13 13 14 14 14 14 14 14 13 13 14 14 13 13 13 13 12 13 13 13 13 13 13 13 13 13 13 13 13 12 12 12 12 12 12 12 12 13 13 13
13 13 13 13 13 14 14 14 14 14 14 14 14 14 13 14 13 14 14 13 13 14 13 13 13 13 13 13 13 13 13 13 13 14 13 12 12 12 12 13 13 13 14
14 13 13 14 14 14 14 14 14 14 13 14 13 13 13 14 14 13 14 14 14 14 14 13 13 13 13 13 13 13 13 13 13 14 14 14 13 13 13 14 14 14 14
14 14 14 14 15 14 14 14 14 14 14 15 14 13 13 13 14 14 13 14 14 14 14 14 13 13 14 13 13 13 13 13 13 13 14 14 14 14 14 15 15 15 15
14 14 14 14 14 14 14 14 14 15 14 14 14 14 14 13 14 14 14 14 14 14 14 14 14 14 14 13 13 13 14 14 14 14 14 14 14 14 14 14 15 15 15
13 13 13 14 14 14 14 14 15 15 15 15 15 15 15 14 14 14 14 14 14 14 14 14 14 14 15 14 13 14 14 14 14 14 14 14 14 14 15 15 15 15 16
13 13 14 14 14 14 14 15 15 15 15 15 15 15 15 15 15 15 15 15 15 15 14 15 15 15 15 15 14 14 14 15 15 16 15 15 14 15 15 15 16 16 16

GEFSSE_500_meanwind_276.txt.gz
Wind_Speed
2 1 1 1 1 1 1 1 1 0 0 0 0 0 1 1 1 1 1 1 1 0 1 1 2 2 2 2 2 2 3 3 3 3 3 4 4 4 4 4 5 5 5
1 1 1 1 0 1 1 1 1 1 1 1 1 1 1 1 1 1 1 2 1 2 2 2 2 3 3 3 3 4 4 4 4 4 4 4 5 5 5 5 6 6 6
2 1 1 1 1 1 1 1 2 2 2 2 2 2 2 3 3 3 2 3 3 3 3 3 3 4 4 4 4 5 5 5 5 5 5 5 6 5 5 6 7 7 7
3 2 2 2 2 2 1 2 2 3 3 3 3 3 3 4 4 4 4 4 4 4 4 4 4 4 5 5 5 5 5 6 6 6 7 7 7 6 7 7 7 8 9
4 4 3 3 3 3 3 3 3 4 4 4 4 4 4 4 4 4 5 5 5 5 6 6 6 6 6 6 6 6 6 6 7 7 7 8 8 8 8 8 9 9 10
5 5 5 5 5 5 5 4 4 4 5 5 4 4 5 5 5 5 5 5 6 6 7 7 6 6 7 7 7 7 7 7 8 7 8 8 9 9 9 9 9 10 11
6 6 6 6 6 6 6 5 5 6 6 6 5 6 6 6 6 6 6 6 6 6 7 7 7 7 7 7 7 7 7 8 8 8 8 8 9 9 9 10 10 10 11
7 7 7 7 6 6 6 6 7 7 7 6 6 6 7 6 6 7 7 6 7 7 7 7 7 8 8 8 7 7 7 8 7 8 8 9 9 10 10 10 11 11 12
7 7 7 7 8 7 8 8 7 8 8 7 7 7 7 7 7 6 7 7 7 7 7 7 7 8 8 7 8 8 8 8 8 8 9 9 10 10 10 10 11 11 11
8 8 9 9 9 9 9 9 9 8 8 8 8 8 8 8 7 7 7 7 7 7 7 7 8 8 8 7 8 8 8 8 8 8 9 9 10 11 11 11 11 11 11
8 9 10 10 10 10 9 9 9 9 9 8 9 9 9 9 8 8 8 8 8 8 8 8 8 8 8 8 8 8 9 9 8 8 8 9 9 10 10 11 11 10 11
9 9 10 10 10 10 11 11 11 10 10 10 10 9 9 9 8 8 8 8 8 8 8 8 8 8 8 8 8 9 9 9 9 9 9 9 9 9 10 10 10 9 10
10 10 11 11 11 11 11 11 12 11 11 11 11 10 10 10 9 9 9 9 8 8 8 9 9 9 9 9 9 9 9 9 9 9 9 10 10 9 9 9 9 10 10
10 10 11 11 12 12 11 11 11 11 12 12 12 12 11 10 10 10 10 9 9 9 9 9 9 9 10 10 10 10 10 10 10 9 9 9 10 9 9 9 9 10 11
11 11 11 12 12 12 12 12 13 12 12 12 12 12 12 11 10 10 10 10 10 10 11 11 10 10 10 10 10 11 11 11 10 10 10 10 10 10 9 9 10 11 11
11 12 13 13 12 13 13 13 13 13 13 13 13 13 13 12 11 11 11 11 11 11 11 11 11 11 10 10 10 11 11 11 11 10 10 10 10 10 10 10 10 10 11
12 13 14 13 13 14 14 14 14 13 13 13 14 13 13 12 13 12 12 12 11 12 12 12 11 11 11 11 11 11 11 11 11 11 11 10 10 10 11 11 11 11 11
13 13 14 14 14 14 14 14 14 14 14 14 14 13 13 13 13 13 13 12 12 12 12 12 11 12 12 12 12 12 12 11 11 11 11 11 11 12 12 12 12 12 12
13 13 14 14 14 14 14 14 14 14 14 14 14 14 14 14 15 15 14 13 13 13 13 12 12 13 13 13 13 13 13 12 12 11 11 11 12 12 12 12 13 13 13
13 13 13 14 14 14 14 14 14 14 14 14 14 15 14 15 15 16 15 15 15 15 14 14 14 14 14 13 13 13 13 13 13 12 12 12 12 12 12 12 13 13 13
14 13 14 14 14 15 14 15 15 14 14 14 14 14 14 15 15 16 16 15 15 15 15 15 14 14 14 14 14 13 13 13 13 13 13 13 13 13 13 14 14 14 14
14 14 14 14 14 14 14 14 15 15 15 15 15 15 15 15 16 16 16 16 15 15 15 14 14 14 14 14 14 13 13 13 13 13 14 14 13 14 14 14 14 14 14
14 14 14 14 14 14 14 15 15 15 15 15 15 15 16 16 16 16 16 15 14 14 15 14 14 14 14 14 14 14 13 13 13 14 14 13 14 14 14 14 14 14 14
14 14 14 14 14 14 14 15 15 15 15 15 15 15 16 16 16 15 15 15 14 15 15 15 15 15 15 15 14 14 14 14 13 13 13 14 13 13 14 14 14 14 15
14 13 14 14 15 15 14 14 14 15 15 16 16 16 16 16 15 14 14 14 15 15 15 16 16 15 15 15 15 15 15 15 14 14 13 14 14 13 14 14 15 16 16
14 14 15 15 15 15 14 14 14 15 15 16 17 17 16 16 16 15 15 15 16 16 16 17 17 17 16 16 16 16 15 15 15 14 14 14 14 14 14 15 16 16 16

GEFSSE_500_meanwind_282.txt.gz
Wind_Speed
3 3 2 2 2 2 2 2 3 2 3 3 3 3 2 2 2 2 3 3 3 3 3 3 3 3 3 3 3 3 3 4 4 4 4 4 4 4 4 4 4 4 4
4 4 3 3 3 4 3 3 3 4 4 4 5 5 4 4 3 4 4 5 5 5 4 4 4 4 4 4 4 4 5 5 5 5 5 5 5 5 5 5 5 5 5
5 5 4 4 4 4 4 4 4 5 5 6 6 6 5 5 5 5 5 6 6 6 6 6 5 5 5 6 6 6 6 6 7 7 7 7 7 7 6 6 6 7 7
6 5 5 5 4 4 5 5 5 5 6 6 6 7 6 6 6 6 6 6 7 6 6 6 6 6 7 7 8 8 8 8 8 8 8 8 8 8 8 8 8 8 8
7 6 6 6 5 6 5 6 6 6 6 6 7 7 7 7 7 7 7 7 7 7 7 7 7 7 8 8 9 9 9 9 9 9 9 9 9 9 9 9 9 9 10
8 8 8 7 7 7 7 7 7 7 7 7 7 7 7 7 7 8 8 8 8 8 8 8 9 8 8 8 9 10 9 9 9 9 9 8 9 9 10 10 9 10 11
9 9 9 8 8 9 9 8 8 8 8 8 8 7 8 8 8 8 8 8 8 9 9 9 9 9 9 9 10 10 9 9 9 9 9 9 9 9 10 10 10 11 11
8 8 8 9 9 9 10 9 9 9 9 9 9 9 9 9 9 9 9 9 9 9 9 9 9 10 10 10 10 10 9 9 9 9 9 9 10 10 10 11 12 11 11
9 9 9 9 9 9 9 10 10 10 10 10 10 10 10 10 10 9 9 9 9 9 9 9 9 10 10 9 9 9 9 10 10 10 10 10 10 10 10 11 11 11 11
10 10 9 10 10 11 11 11 12 12 12 11 12 12 11 11 11 11 10 9 9 9 10 10 10 9 9 9 10 10 10 10 10 9 10 11 11 11 11 11 11 11 11
11 10 10 11 11 11 11 12 13 13 13 12 13 13 13 12 11 11 10 10 9 9 10 10 10 10 10 10 10 10 10 10 10 10 10 10 10 11 10 10 10 11 11
11 11 11 11 12 12 13 13 13 13 14 13 13 12 12 12 11 11 10 10 10 10 10 10 10 11 11 11 11 10 10 10 10 11 11 10 11 11 10 10 10 10 11
11 12 12 13 13 13 13 14 14 14 13 12 12 12 12 12 12 11 11 11 11 10 10 11 11 11 11 12 11 11 11 11 11 11 11 11 11 11 11 11 10 10 10
11 12 13 13 14 14 14 14 14 15 14 13 13 13 13 13 12 12 12 12 12 11 11 11 12 12 12 12 12 11 11 11 11 11 11 11 11 11 11 11 11 11 11
12 13 13 13 14 14 15 15 15 15 14 14 14 14 13 13 13 13 13 12 12 12 12 12 12 12 12 12 12 11 12 12 11 11 11 12 12 11 11 11 11 11 11
13 13 13 14 14 15 15 15 15 15 15 15 14 14 14 14 14 14 13 13 13 13 13 12 13 13 12 12 12 11 11 12 12 12 12 12 12 12 13 12 12 12 12
13 14 14 14 15 15 15 15 15 15 14 14 14 14 14 14 14 14 14 13 14 14 13 13 13 13 13 12 12 12 12 12 12 12 12 12 12 12 12 12 12 12 11
14 14 14 15 15 16 16 16 16 15 14 14 14 14 14 14 14 14 14 14 15 15 14 15 14 14 14 13 13 13 13 13 13 12 12 12 12 12 12 12 13 12 13
15 15 15 15 15 15 16 16 15 15 14 14 14 14 14 14 14 14 14 14 14 15 15 16 15 14 14 13 14 14 13 13 13 13 13 12 12 12 12 13 13 13 14
15 15 15 15 15 15 15 15 14 13 14 14 14 14 14 14 14 15 15 15 15 16 16 16 15 14 14 13 13 14 13 13 13 13 13 12 12 12 13 13 13 14 14
15 15 16 15 15 14 14 14 13 13 13 13 14 13 14 14 14 15 15 16 16 16 16 16 15 15 15 14 14 14 14 13 13 13 13 13 13 14 14 14 14 14 15
15 15 15 15 15 15 14 14 13 13 13 14 14 14 15 15 14 14 15 15 16 16 16 15 15 15 14 14 14 14 15 14 14 14 14 14 14 14 14 14 14 14 15
16 16 15 15 15 15 14 14 14 14 14 15 15 15 15 15 15 15 15 15 15 15 15 15 15 14 15 14 14 14 15 15 15 15 14 15 15 15 14 15 15 15 14
17 16 16 16 16 15 15 15 15 15 15 15 15 16 16 16 16 16 15 15 15 15 15 15 15 15 16 16 15 14 15 16 15 15 15 15 15 15 15 15 15 15 15
17 17 16 16 16 16 15 15 16 16 16 16 16 16 17 17 17 16 16 16 16 15 15 15 16 16 16 16 16 16 16 16 16 16 15 15 15 16 16 16 16 15 15
17 17 17 17 17 17 17 16 17 17 17 16 16 16 17 17 17 16 16 16 16 16 16 16 16 16 16 16 17 17 17 17 17 16 16 16 15 16 16 16 16 16 16

GEFSSE_500_meanwind_288.txt.gz
Wind_Speed
1 1 1 2 2 2 3 2 2 3 3 3 3 4 4 4 4 5 5 4 5 5 6 6 6 5 5 5 5 5 6 5 5 5 5 4 4 4 5 5 5 4 5
2 2 2 3 4 4 4 4 4 4 5 5 5 5 5 5 6 6 6 6 6 6 7 7 7 7 7 6 6 7 6 6 6 5 5 6 6 5 5 6 6 6 6
3 3 4 5 5 5 5 5 5 5 6 6 6 6 7 7 7 8 8 7 7 7 8 8 8 8 8 8 8 7 7 7 7 7 6 6 6 6 6 6 7 7 7
4 4 5 5 6 6 6 6 6 6 6 6 7 7 8 8 8 9 9 9 9 9 8 9 9 9 9 9 9 8 8 8 9 8 8 8 8 8 8 8 8 9 9
5 5 6 6 6 6 6 6 7 7 7 7 7 8 8 8 8 9 9 10 10 9 9 9 10 10 10 10 10 10 10 9 9 9 9 9 9 9 10 9 9 10 10
5 5 5 6 6 7 7 8 7 7 8 8 8 8 8 8 8 9 9 10 10 10 10 10 10 10 10 10 11 11 10 10 10 10 10 10 10 10 10 10 10 10 11
6 5 5 6 6 7 8 8 8 8 8 9 9 8 8 8 9 9 9 10 10 10 10 10 10 10 11 10 11 10 10 10 10 10 10 10 11 11 11 10 10 11 11
6 6 6 6 7 7 8 9 9 9 9 10 10 9 9 9 9 9 9 9 9 9 10 10 10 10 10 11 11 10 10 10 11 11 10 11 11 11 11 11 11 11 12
7 7 7 7 7 7 8 9 10 10 10 11 11 11 11 11 10 10 10 10 10 10 10 10 10 10 10 10 10 10 10 10 11 11 11 11 10 11 11 12 12 12 11
7 8 8 8 8 8 9 9 10 10 10 11 11 12 11 11 11 11 11 11 11 11 10 10 10 10 10 10 10 10 10 10 10 10 11 11 11 11 11 11 12 12 11
7 8 8 9 9 10 9 9 10 11 11 11 11 12 11 11 12 12 11 11 11 10 10 10 10 10 10 10 10 10 10 10 10 10 10 10 10 11 11 11 11 11 10
8 8 8 9 10 10 10 10 11 12 12 12 12 12 12 12 12 12 12 12 11 10 10 10 10 10 11 10 11 11 11 11 11 10 11 11 11 11 11 11 11 11 10
8 8 9 10 10 11 11 11 11 12 12 13 12 12 12 12 12 12 12 12 12 11 11 11 11 11 12 11 11 11 11 11 11 11 12 12 12 11 11 11 11 11 11
9 9 10 10 11 11 11 11 11 11 12 12 12 12 12 12 12 12 11 13 12 12 12 12 13 13 12 12 11 11 11 11 11 12 11 12 12 12 12 11 11 12 12
9 10 10 10 11 11 11 10 11 11 11 11 11 11 12 12 11 11 12 12 12 12 12 12 12 12 12 12 12 11 11 11 12 12 12 12 12 12 12 12 12 13 13
10 10 10 10 10 10 10 10 11 11 10 11 11 11 11 11 10 12 12 12 12 12 12 11 11 12 12 12 12 11 11 12 12 12 12 12 12 13 12 12 12 12 12
10 11 11 10 10 10 10 11 11 11 11 11 11 11 11 11 12 12 12 12 12 12 12 11 11 12 12 12 12 12 12 12 12 12 12 12 12 13 13 13 13 12 12
11 11 11 10 10 10 11 11 12 12 12 12 11 11 11 11 11 12 12 12 12 12 12 11 11 12 12 12 11 11 11 12 11 11 12 12 12 12 13 13 13 13 13
11 11 11 11 11 11 11 11 11 11 12 12 12 12 12 12 12 12 13 12 12 12 12 12 12 12 12 12 12 11 11 11 12 12 12 12 12 12 12 13 12 12 12
11 11 11 11 11 11 12 12 12 12 12 12 12 11 12 12 12 12 12 12 12 13 13 13 13 13 12 12 12 12 12 12 12 13 13 13 12 12 13 13 13 13 13
12 12 12 12 12 12 12 12 12 12 12 12 11 11 11 12 12 12 12 12 13 13 13 13 13 13 13 13 13 13 13 13 13 13 14 13 13 14 14 13 13 13 13
12 13 13 13 13 13 13 13 13 12 12 12 12 12 11 12 12 12 12 12 13 13 13 13 13 13 13 13 13 13 14 14 14 14 14 14 14 14 14 14 14 14 14
13 14 14 13 12 13 13 13 13 12 12 12 12 12 12 12 12 12 12 13 13 13 13 14 13 13 13 13 14 14 14 15 15 15 15 14 14 14 14 14 14 14 14
13 13 14 13 13 13 13 13 13 12 12 12 12 12 12 12 12 12 12 12 13 13 14 14 14 14 14 14 14 14 14 14 15 16 16 16 15 15 15 14 15 14 14
13 13 14 14 14 13 13 13 13 13 13 13 12 12 12 12 12 12 12 13 13 13 13 14 13 14 14 14 14 14 14 14 15 16 15 15 15 15 15 15 14 14 14
14 13 13 14 13 13 13 13 13 13 13 13 13 13 13 13 13 13 13 13 14 13 14 14 14 14 14 14 14 15 15 15 16 15 15 15 15 15 15 15 15 15 15

GEFSSE_500_meanwind_294.txt.gz
Wind_Speed
1 2 2 2 3 2 2 2 2 2 2 2 3 3 4 4 5 5 5 5 5 5 5 5 6 5 5 5 5 5 6 5 5 5 4 4 4 4 4 5 4 4 5
2 2 3 3 3 4 3 3 4 3 4 4 4 4 5 5 6 6 6 6 7 7 6 6 6 6 6 6 6 6 6 6 6 5 5 5 5 5 6 5 5 5 6
3 3 4 4 4 5 5 5 4 4 5 6 6 6 6 6 7 8 8 8 8 8 8 7 8 8 8 8 7 7 7 7 7 7 7 7 6 7 7 7 7 7 6
4 5 5 5 6 6 6 6 6 6 6 7 7 7 7 7 8 8 8 8 8 8 9 9 9 9 9 9 9 9 8 8 8 8 8 8 8 8 8 8 8 8 8
5 5 6 6 6 6 6 7 7 7 7 7 7 7 8 8 8 8 8 9 9 10 10 9 10 10 10 10 10 10 9 9 9 9 9 9 9 9 9 9 9 9 9
6 6 7 7 7 6 7 7 6 7 7 7 8 8 8 8 8 9 9 9 9 10 10 11 11 10 10 10 10 10 10 10 9 10 10 9 9 9 9 9 9 10 10
6 6 6 7 6 6 7 7 7 7 7 8 8 8 8 9 9 8 9 9 9 9 10 11 11 11 10 10 11 11 10 10 10 11 10 10 10 10 10 10 10 10 10
6 6 6 7 7 7 8 8 8 8 9 9 9 9 10 10 10 10 10 10 9 9 10 10 10 10 11 11 11 11 10 11 11 11 11 11 11 11 11 11 11 11 11
7 7 7 7 8 8 8 9 9 9 9 10 10 11 11 11 11 10 10 10 10 10 10 10 11 10 11 11 11 10 10 11 11 11 11 11 12 12 12 12 12 12 12
7 8 7 8 8 9 9 10 10 10 10 10 11 11 11 11 11 11 10 10 11 11 11 11 11 10 10 11 11 11 11 11 11 11 11 11 11 12 12 11 11 11 12
7 7 8 8 9 10 10 11 11 11 11 11 12 11 11 12 12 11 11 11 12 11 11 11 11 11 11 11 11 11 11 11 11 11 11 10 11 11 11 11 11 11 11
8 8 8 9 9 10 11 11 12 12 12 12 12 12 12 12 12 11 11 11 12 12 12 12 12 11 11 11 11 11 11 11 11 11 11 10 11 11 11 11 11 11 11
8 8 9 10 10 10 11 11 12 12 12 13 13 13 13 12 12 12 12 12 12 13 13 13 13 12 11 11 11 12 12 11 12 12 11 11 11 11 11 11 12 12 12
9 10 10 10 11 11 11 11 11 11 12 12 12 13 13 12 12 12 13 12 13 13 13 12 12 12 12 12 12 12 13 12 13 13 12 12 12 12 12 12 12 12 13
10 9 10 10 11 10 10 10 11 11 11 12 12 12 12 12 12 12 12 12 13 13 13 13 13 13 12 12 12 13 13 13 13 13 13 13 13 13 12 13 13 13 13
9 9 9 9 9 10 10 10 11 11 12 12 13 13 12 12 12 12 12 12 13 13 13 13 13 13 13 12 11 12 12 13 13 12 13 13 13 13 13 14 13 14 13
10 9 9 9 9 10 10 11 11 11 12 13 13 13 13 13 13 12 12 12 13 13 13 13 13 12 12 12 12 11 11 11 11 11 12 13 13 13 13 13 13 14 14
10 10 10 10 10 10 10 11 11 12 12 13 13 13 13 13 12 12 12 11 12 11 12 11 11 12 12 12 12 12 11 11 11 12 12 12 13 13 13 13 14 14 14
10 10 10 10 10 10 11 11 12 12 13 13 13 13 12 12 11 11 11 12 12 12 11 11 11 11 11 12 12 12 12 12 12 12 12 13 13 13 14 14 13 14 14
10 10 10 10 11 11 11 12 13 13 13 13 13 13 12 12 12 12 12 12 11 12 12 12 12 12 12 12 13 13 13 12 13 12 13 13 13 14 14 14 14 14 15
10 10 10 10 10 11 12 12 13 13 13 13 12 12 12 12 12 12 13 13 12 13 14 13 13 13 13 13 13 13 13 13 14 14 14 14 14 14 14 14 14 14 14
9 10 10 10 11 11 12 13 13 13 13 13 12 12 12 13 13 13 13 14 14 14 14 14 13 13 13 13 13 14 14 14 14 14 14 14 14 14 14 14 14 14 14
9 10 11 11 11 11 12 13 13 13 13 13 13 13 12 12 13 13 13 13 13 14 13 13 13 13 12 12 13 13 13 14 15 15 15 15 15 15 15 15 15 14 15
10 10 11 12 12 12 12 13 13 13 13 14 14 14 13 13 13 13 14 14 14 14 14 14 13 12 12 12 13 13 14 14 15 15 16 16 16 16 17 17 16 16 16
11 11 12 12 12 13 13 13 13 14 14 14 14 14 14 14 14 14 13 14 14 14 14 14 14 13 13 13 13 14 14 15 15 16 16 16 17 17 17 17 17 17 16
12 12 12 12 13 13 13 13 14 14 15 14 14 14 14 14 15 15 15 14 14 14 14 14 14 14 14 14 14 15 15 15 16 16 16 17 17 17 17 17 16 16 16